Valle del Fuerte International Airport

Jump to: basic info | weather | frequencies | runways | comments

Related pages: nearby airports | nearby navaids | notams | map

Basic information (top)

Codes: LMM MMLM
Location: lon 25.685200, lat -109.081001, elev 16 ft / 5 m msl
Status: medium_airport
Scheduled airline service: yes
Links: Wikipedia Mobile

Weather (top)

Current conditions (rec'd 2015/04/26 02:43Z):

MMLM 260243Z 27004KT 10SM SCT220 22/12 A2986 RMK SLP112 8/001

Airport forecast (rec'd 2015/04/23 18:05Z):

TAF COR MMLM 231959Z 2318/2418 12010KT P6SM SCT020 BKN080 OVC250 
      TEMPO 2318/2321 5SM -RA BKN020 
     FM232200 24012KT P6SM SCT025 BKN100 BKN250 
     FM240600 00000KT P6SM BKN120 OVC200

Frequencies (top)

Verify before use: may be inaccurate or out of date.

TWR: 118.8 MHz (MOCHIS TWR)

Runways (top)

09/27: 6,562 x 148 ft (2,000 x 45 m) — paved — lighted

Latest comments (top)

No comments yet for Valle del Fuerte International Airport

More... (top)

See also NOTAMs and nearby airports and navaids, or visit the Valle del Fuerte International Airport page at the main OurAirports website..